Location: Plainartige
(45.6866°N, 1.7993°E)
Time: 11:23:23
(UTC+00:00)

Gurwin Techsat 1B - Pass Details

Date: 03 July 2022
Orbit: 812 x 813 km, 98.8° (Epoch: 09 August)

Event Time Altitude Azimuth Distance (km) Brightness Sun altitude
Rises 01:14:39 0° 29° (NNE) 3,345 13.4 -19.1°
Reaches altitude 10° 01:17:44 10° 47° (NE) 2,408 12.0 -18.9°
Maximum altitude 01:21:24 19° 91° (E) 1,867 10.7 -18.7°
Drops below altitude 10° 01:25:03 10° 135° (SE) 2,395 10.8 -18.5°
Enters shadow 01:25:47 - 140° (SE) 2,597 11.0 -18.4°
